Flag for France Weather past 2 weeks in Rouen, France

Now
64 °F

Mild.


Feels Like: 64 °F
Forecast: 45 / 71 °F
Wind: 10 mph from North

Location: Rouen Airport

Current Time: May 23, 2015 at 3:48:46 PM

Latest Report: May 23, 2015 at 3:30 PM


Visibility: N/A

Pressure: 30.18 "Hg

Humidity: 73%

Dew point: 55 °F

Location of RouenLocation

Historic Weather in Rouen — Graph

°F

Rouen temperature yesterday

Maximum temperature yesterday: 63 °F (at 4:00 PM)
Minimum temperature yesterday: 41 °F (at 4:00 AM)
Average temperature yesterday: 52 °F

Past Weeks' High & Low Weather Summary

 TemperatureHumidityPressure
High77 °F (May 11, 2:00 PM)100% (May 10, 5:00 AM)30.39 "Hg (May 10, 5:00 AM)
Low37 °F (May 13, 5:30 AM)45% (May 17, 2:00 PM)29.77 "Hg (May 18, 4:30 PM)
Average54 °F77%30.12 "Hg
* Reported May 8 2:00 PM — May 23 2:30 PM, Rouen, Weather by CustomWeather, © 2015

Note: Actual official high and low records may vary slightly from our data, if they occured in-between our weather recording intervals... More about our weather records

Advertising

Rouen weather history for previous 24 hours

 ConditionsComfort  
Time TempWeatherWind HumidityBarometerVisibility
2:30 PM
Sat, May 23
64 °FBroken clouds.6 mph73%30.18 "HgN/A
2:00 PM64 °FMostly cloudy.7 mph73%30.18 "HgN/A
1:30 PM64 °FMostly cloudy.6 mph73%30.18 "HgN/A
1:00 PM64 °FPartly sunny.6 mph73%30.21 "HgN/A
12:30 PM63 °FMostly cloudy.5 mph77%30.21 "HgN/A
12:00 PM61 °FOvercast.3 mph77%30.21 "HgN/A
11:30 AM61 °FMostly cloudy.3 mph77%30.21 "HgN/A
11:00 AM59 °FMostly cloudy.2 mph82%30.21 "HgN/A
10:30 AM57 °FLow clouds.3 mph88%30.21 "HgN/A
10:00 AM57 °FLow clouds.3 mph88%30.21 "HgN/A
9:30 AM55 °FLow clouds.3 mph88%30.21 "HgN/A
9:00 AM55 °FLow clouds.3 mph88%30.21 "HgN/A
8:30 AM55 °FLow clouds.2 mph88%30.21 "HgN/A
8:00 AM54 °FLow clouds.3 mph94%30.21 "HgN/A
7:30 AM54 °FLow clouds.5 mph94%30.21 "HgN/A
7:00 AM54 °FLow clouds.6 mph94%30.21 "HgN/A
6:30 AM54 °FLow clouds.3 mph94%30.21 "Hg6 mi
6:00 AM54 °FLow clouds.2 mph94%30.18 "Hg6 mi
5:30 AM54 °FMostly cloudy.3 mph94%30.21 "HgN/A
5:00 AM54 °FLow clouds.5 mph94%30.21 "HgN/A
4:30 AM54 °FLow clouds.6 mph94%30.21 "HgN/A
4:00 AM54 °FLow clouds.5 mph94%30.21 "HgN/A
3:30 AM54 °FLow clouds.7 mph94%30.21 "HgN/A
3:00 AM54 °FMostly cloudy.7 mph94%30.24 "HgN/A
2:30 AM54 °FMostly cloudy.7 mph94%30.24 "HgN/A
2:00 AM54 °FLow clouds.7 mph94%30.24 "HgN/A
1:30 AM55 °FOvercast.5 mph88%30.24 "HgN/A
1:00 AM55 °FOvercast.6 mph88%30.27 "HgN/A
12:30 AM55 °FOvercast.5 mph88%30.27 "HgN/A
12:00 AM55 °FOvercast.6 mph88%30.27 "HgN/A
11:00 PM
Fri, May 22
55 °FOvercast.6 mph82%30.27 "HgN/A
10:30 PM55 °FOvercast.5 mph82%30.27 "HgN/A
10:00 PM55 °FOvercast.7 mph82%30.27 "HgN/A
9:30 PM57 °FOvercast.6 mph77%30.27 "HgN/A
9:00 PM57 °FOvercast.8 mph77%30.27 "HgN/A
8:30 PM57 °FMostly cloudy.9 mph77%30.27 "HgN/A
8:00 PM59 °FMostly cloudy.10 mph72%30.27 "HgN/A
7:30 PM61 °FMostly cloudy.12 mph63%30.27 "HgN/A
7:00 PM63 °FCloudy.8 mph56%30.27 "HgN/A
6:30 PM63 °FPassing clouds.8 mph56%30.27 "HgN/A
6:00 PM63 °FPassing clouds.7 mph49%30.27 "HgN/A
5:30 PM63 °FPassing clouds.9 mph52%30.27 "HgN/A
5:00 PM63 °FPassing clouds.9 mph52%30.27 "HgN/A
4:30 PM63 °FPartly sunny.8 mph59%30.30 "HgN/A
4:00 PM63 °FScattered clouds.7 mph59%30.30 "HgN/A
3:30 PM61 °FScattered clouds.2 mph59%30.30 "HgN/A
3:00 PM61 °FPartly sunny.6 mph63%30.30 "HgN/A
Weather by CustomWeather, © 2015

See weather overviewHow to use our weather pages